Preview of NWS' New Version of Forecast
This preview is not operational and should not be used for support decisions.

Regional Weather Roundup (RWR)

Issued by Gray - Portland, ME (GYX)

                            
000
ASUS41 KGYX 202210
RWRGYX
WEATHER ROUNDUP FOR MAINE AND NEW HAMPSHIRE
NATIONAL WEATHER SERVICE GRAY ME
600 PM EDT SAT APR 20 2019

MEZ002-005-006-010-012-015-018-020-021-024-026-027-029-202300-
MAINE
  
CITY           SKY/WX    TMP DP  RH WIND       PRES   REMARKS
PORTLAND       CLOUDY    55  53  93 S14G20    29.95R FOG              
SANFORD        PTSUNNY   62  60  93 VRB3      29.92R                  
BAR HARBOR     LGT RAIN  53  53 100 SW9       30.04R FOG              
WISCASSET      CLOUDY    55  54  96 S9        29.98R FOG              
ROCKLAND       CLOUDY    53  52  96 S10G20    29.99R FOG              
FRYEBURG       CLOUDY    63  62  97 S7        29.92R                  
LEWISTONAUBURN   N/A     59  59 100 S12G17    29.94R FOG              
AUGUSTA        FOG       58  58 100 S8        29.97R VSB 1            
WATERVILLE     LGT RAIN  47  47 100 N7        29.96R FOG              
BANGOR         LGT RAIN  48  47  96 N5        30.01S FOG              
GREENVILLE       N/A     42  41  96 SE8       29.95R                  
MILLINOCKET    LGT RAIN  42  40  92 NE9       30.03F FOG              
HOULTON        CLOUDY    40  39  97 VRB3      30.06S FOG              
PRESQUE ISLE   LGT RAIN  41  40  96 NE9       30.08F FOG              
FRENCHVILLE    LGT RAIN  41  37  86 E9        30.06S                  
CARIBOU        CLOUDY    42  39  89 E7        30.08S                  
$$

NHZ002-005-008-009-011-012-014-202300-
NEW HAMPSHIRE
  
CITY           SKY/WX    TMP DP  RH WIND       PRES   REMARKS
ROCHESTER      PTSUNNY   64  61  90 SE6       29.91R                  
NASHUA         CLOUDY    70  65  84 SE7G15    29.89R                  
MANCHESTER     CLOUDY    70  62  76 SE14      29.87R                  
CONCORD        CLOUDY    69  60  73 S9        29.88R                  
LACONIA        CLOUDY    69  62  78 S10G18    29.88R                  
PLYMOUTH       CLOUDY    61  59  96 CALM      29.85R FOG              
BERLIN         LGT RAIN  62  61  96 E5        29.87S FOG              
WHITEFIELD     PTSUNNY   64  60  87 E3        29.84F                  
JAFFREY        PTSUNNY   67  59  75 S14G25    29.86S                  
KEENE          CLOUDY    69  61  75 S17       29.83S                  
LEBANON        CLOUDY    69  60  73 S6        29.80S                  
MT WASHINGTON  FOG       48  48 100 S35G43      N/A  VSB 1/16         
$$

VTZ005-007-008-202300-
VERMONT
  
CITY           SKY/WX    TMP DP  RH WIND       PRES   REMARKS
ST JOHNSBURY     N/A     56  56 100 MISG      29.81S                  
MONTPELIER     CLOUDY    55  53  93 CALM      29.84S                  
BURLINGTON     LGT RAIN  46  44  93 N6        29.78S                  
$$

MAZ007-012-024-CTZ003-RIZ002-NYZ038-NYZ072-202300-
SOUTHERN NEW ENGLAND AND NY
  
CITY           SKY/WX    TMP DP  RH WIND       PRES   REMARKS
BOSTON         LGT RAIN  66  62  87 S16       29.93R                  
WORCESTER      LGT RAIN  64  61  90 S16G28    29.90R                  
NANTUCKET      CLOUDY    54  52  93 S20       29.99R FOG              
PROVIDENCE     LGT RAIN  59  59 100 SE15      29.93R                  
HARTFORD       LGT RAIN  65  62  90 S12       29.84R FOG              
ALBANY         CLOUDY    71  55  56 S24G32    29.72R                  
NEW YORK CITY  PTSUNNY   58  51  78 S18G28    29.79R                  
$$

ANZ081-ANZ082-ANZ150-NHZ014-MEZ023>029-202300-
COASTAL MARINE OBSERVATIONS
  
STATION/POSITION TIME  TEMP    WIND        PRES    WAVE
                       AIR SEA DIR/SP/G            HT/PER
                 (UTC) (F)     (DEG/KT/KT) (MB)    (FT/S)
ISLE OF SHOALS   2200   52     170/ 23/ 24 1013.0R
JEFFREYS LEDGE   2138      42                N/A     7/ 8
CASHES LEDGE BUO 2150   50 42              1014.9R  10/ 8
$$

.............KEY..............
   WCI - WIND CHILL
   TC  - TEMPERATURE IN CELSIUS
   VSB - VISIBILITY IN MILES
   HX  - HEAT INDEX
   FAIR- INDICATES FEW OR NO CLOUDS BELOW 12,000 FT, WITH NO 
         SIGNIFICANT WEATHER AND/OR OBSTRUCTIONS TO VISIBILITY.